Location: Potomac
(46.8816°N, 113.5795°W)
Time: 08:45:58
(UTC+00:00)

NANOSAT C BR1 - Pass Details

Date: 27 June 2022
Orbit: 584 x 599 km, 98.0° (Epoch: 17 August)

Event Time Altitude Azimuth Distance (km) Brightness Sun altitude
Rises 10:13:38 0° 8° (N) 2,846 ? -11.5°
Reaches altitude 10° 10:15:51 10° 3° (N) 1,942 ? -11.2°
Maximum altitude 10:19:55 49° 289° (WNW) 773 ? -10.8°
Enters shadow 10:23:16 15° 217° (SW) 1,654 ? -10.5°
